{"data":{"norad_id":27944,"intl_designator":"2003-042F","name":"LARETS","alt_names":[],"object_type":"PAYLOAD","status":"ACTIVE","operator":null,"country":"CIS","launch_date":"2003-09-27","launch_site_code":"PLMSC","launch_vehicle":null,"mission":null,"orbit_class":"UNKNOWN","rcs_meters":0.136,"size_class":null,"mass_kg":null,"dimensions":null,"purposes":["science"],"wikipedia_slug":null,"has_3d_model":false,"image_url":null,"decayed_at":null,"tle_current":{"epoch":"2026-09-19T22:04:54.584544Z","epoch_age_seconds":64839,"freshness":"FRESH","line1":"1 27944U 03042F   26262.92007621  .00000007  00000+0  10930-4 0  9993","line2":"2 27944  98.4268  67.1772 0013502  99.9711 260.3015 14.63881894227226","mean_motion":14.63881894,"eccentricity":0.0013502,"inclination_deg":98.4268,"raan_deg":67.1772,"arg_perigee_deg":99.9711,"mean_anomaly_deg":260.3015,"bstar":1.093e-5,"rev_number":22722,"period_min":98.368591476001,"perigee_km":671.13661458607,"apogee_km":690.19821002106,"semimajor_km":7058.8044123036,"source":"CELESTRAK","updated_at":"2026-09-20T09:00:47.281995Z"}}}